Location: ??
(35.1714°N, 128.2806°E)
Time: 15:03:39
(UTC+00:00)

Cosmos 1315 Rocket - Pass Details

Date: 29 October 2020
Orbit: 530 x 567 km, 81.2° (Epoch: 30 November)

Event Time Altitude Azimuth Distance (km) Brightness Sun altitude
Rises 21:17:03 0° 345° (NNW) 2,766 6.1 -6.6°
Reaches altitude 10° 21:19:16 10° 340° (NNW) 1,868 5.2 -6.2°
Maximum altitude 21:23:16 50° 265° (W) 724 3.1 -5.4°
Drops below altitude 10° 21:27:15 10° 190° (S) 1,857 5.6 -4.6°
Sets 21:29:27 0° 185° (S) 2,748 6.5 -4.1°
